THY6FX LTFM-EDDL

Flight info

Callsign THY6FX
Flight time N/A
Altitude 40000
Route TUDBU Q26 ETUBA DCT NAVOD DCT INVED DCT OGVUN DCT BEGLA DCT UBUXI DCT DITIS DCT RAPET DCT MASEK DCT AMETU T852 TINSA T854 DOMUX DOMUX1A
Aircraft A333/H-SDE3GHIJ2J3J5M1RVWXY/LB2D1

Departure

Time N/A
Airport İstanbul Airport (LTFM)

Arrival

Time 2026-05-04 04:50
Airport Düsseldorf Airport (EDDL)
Time Latitude Longitude Altitude Speed Heading
2026-05-04 02:55 45.13608 22.24547 40180 ft 444 kts 311°
2026-05-04 02:55 45.15554 22.21145 40180 ft 444 kts 311°
2026-05-04 02:56 45.19447 22.14329 40189 ft 444 kts 311°
2026-05-04 02:56 45.23336 22.07503 40168 ft 446 kts 311°
2026-05-04 02:57 45.27234 22.00645 40177 ft 445 kts 311°
2026-05-04 02:57 45.31121 21.93788 40171 ft 445 kts 311°
2026-05-04 02:58 45.34978 21.86968 40165 ft 445 kts 311°
2026-05-04 02:58 45.38855 21.80096 40151 ft 445 kts 311°
2026-05-04 02:59 45.42731 21.73209 40162 ft 444 kts 311°
2026-05-04 02:59 45.46561 21.66388 40165 ft 444 kts 311°
2026-05-04 03:00 45.50416 21.59506 40160 ft 444 kts 311°
2026-05-04 03:00 45.54267 21.52614 40163 ft 444 kts 311°
2026-05-04 03:01 45.58115 21.45709 40161 ft 443 kts 311°
2026-05-04 03:01 45.61943 21.38824 40157 ft 442 kts 311°
2026-05-04 03:02 45.65746 21.31969 40156 ft 442 kts 311°
2026-05-04 03:02 45.69567 21.25064 40154 ft 442 kts 311°
2026-05-04 03:03 45.73390 21.18140 40157 ft 441 kts 311°
2026-05-04 03:03 45.77166 21.11281 40155 ft 440 kts 311°
2026-05-04 03:04 45.80954 21.04386 40154 ft 440 kts 311°
2026-05-04 03:04 45.84738 20.97480 40155 ft 441 kts 311°
2026-05-04 03:05 45.88525 20.90553 40157 ft 441 kts 311°
2026-05-04 03:05 45.92310 20.83612 40155 ft 440 kts 311°
2026-05-04 03:06 45.96084 20.76673 40160 ft 440 kts 311°
2026-05-04 03:06 45.99854 20.69724 40154 ft 440 kts 310°
2026-05-04 03:07 46.03594 20.62815 40131 ft 440 kts 310°
2026-05-04 03:07 46.07357 20.55843 40153 ft 439 kts 310°
2026-05-04 03:08 46.11099 20.48894 40151 ft 439 kts 310°
2026-05-04 03:08 46.14843 20.41926 40146 ft 439 kts 310°
2026-05-04 03:09 46.18482 20.34919 40149 ft 440 kts 309°
2026-05-04 03:09 46.22071 20.27750 40148 ft 440 kts 308°
2026-05-04 03:10 46.25645 20.20571 40148 ft 439 kts 308°
2026-05-04 03:10 46.29201 20.13441 40148 ft 439 kts 308°
2026-05-04 03:11 46.32786 20.06256 40157 ft 439 kts 308°
2026-05-04 03:11 46.36364 19.99067 40152 ft 439 kts 308°
2026-05-04 03:12 46.39913 19.91921 40157 ft 440 kts 308°
2026-05-04 03:12 46.43477 19.84722 40154 ft 440 kts 308°
2026-05-04 03:13 46.47043 19.77500 40151 ft 440 kts 308°
2026-05-04 03:13 46.50602 19.70274 40142 ft 440 kts 308°
2026-05-04 03:14 46.54140 19.63072 40155 ft 440 kts 308°
2026-05-04 03:14 46.57690 19.55826 40154 ft 440 kts 308°
2026-05-04 03:15 46.61241 19.48560 40152 ft 440 kts 308°
2026-05-04 03:15 46.64782 19.41294 40153 ft 440 kts 308°
2026-05-04 03:16 46.68322 19.34014 40154 ft 440 kts 307°
2026-05-04 03:16 46.71838 19.26763 40153 ft 440 kts 307°
2026-05-04 03:17 46.75374 19.19450 40151 ft 440 kts 307°
2026-05-04 03:17 46.78899 19.12141 40151 ft 440 kts 307°
2026-05-04 03:18 46.82423 19.04818 40143 ft 440 kts 307°
2026-05-04 03:18 46.85935 18.97497 40153 ft 440 kts 307°
2026-05-04 03:19 46.89443 18.90166 40146 ft 440 kts 307°
2026-05-04 03:19 46.92926 18.82871 40146 ft 440 kts 306°
2026-05-04 03:20 46.96428 18.75516 40145 ft 440 kts 306°
2026-05-04 03:20 46.99925 18.68153 40147 ft 440 kts 306°
2026-05-04 03:21 47.03411 18.60794 40140 ft 439 kts 306°
2026-05-04 03:21 47.06897 18.53415 40143 ft 439 kts 306°
2026-05-04 03:22 47.10350 18.46086 40140 ft 439 kts 306°
2026-05-04 03:22 47.13825 18.38693 40140 ft 439 kts 306°
2026-05-04 03:23 47.17292 18.31294 40139 ft 439 kts 306°
2026-05-04 03:23 47.20755 18.23886 40145 ft 439 kts 305°
2026-05-04 03:24 47.24210 18.16473 40129 ft 439 kts 305°
2026-05-04 03:24 47.27642 18.09090 40118 ft 439 kts 305°
2026-05-04 03:25 47.31087 18.01660 40105 ft 439 kts 305°
2026-05-04 03:25 47.34539 17.94196 40122 ft 439 kts 305°
2026-05-04 03:26 47.38009 17.86771 40116 ft 439 kts 308°
2026-05-04 03:26 47.41957 17.79901 40111 ft 438 kts 312°
2026-05-04 03:27 47.46024 17.73170 40126 ft 439 kts 312°
2026-05-04 03:27 47.50085 17.66507 40123 ft 439 kts 312°
2026-05-04 03:28 47.54164 17.59788 40107 ft 439 kts 312°
2026-05-04 03:28 47.58234 17.53049 40120 ft 439 kts 312°
2026-05-04 03:29 47.62301 17.46290 40111 ft 439 kts 312°
2026-05-04 03:29 47.66344 17.39554 40101 ft 438 kts 311°
2026-05-04 03:30 47.70396 17.32786 40090 ft 438 kts 311°
2026-05-04 03:30 47.74447 17.26004 40087 ft 438 kts 311°
2026-05-04 03:31 47.78488 17.19220 40090 ft 438 kts 311°
2026-05-04 03:31 47.82505 17.12461 40067 ft 438 kts 311°
2026-05-04 03:32 47.86578 17.05703 40073 ft 437 kts 312°
2026-05-04 03:32 47.89976 17.00124 40078 ft 437 kts 312°
2026-05-04 03:33 47.94060 16.93404 40081 ft 436 kts 312°
2026-05-04 03:33 47.98123 16.86692 40051 ft 435 kts 312°
2026-05-04 03:34 48.02176 16.79974 40034 ft 435 kts 312°
2026-05-04 03:34 48.06234 16.73230 40023 ft 436 kts 312°
2026-05-04 03:35 48.10296 16.66458 40019 ft 437 kts 311°
2026-05-04 03:35 48.14291 16.59678 40022 ft 437 kts 309°
2026-05-04 03:36 48.18087 16.52548 40023 ft 437 kts 308°
2026-05-04 03:36 48.21778 16.45366 40022 ft 436 kts 307°
2026-05-04 03:37 48.25507 16.38129 40024 ft 439 kts 307°
2026-05-04 03:37 48.29272 16.30864 40026 ft 440 kts 308°
2026-05-04 03:38 48.33036 16.23607 40032 ft 440 kts 307°
2026-05-04 03:38 48.36777 16.16376 40029 ft 440 kts 307°
2026-05-04 03:39 48.40537 16.09088 40035 ft 441 kts 307°
2026-05-04 03:39 48.44302 16.01766 40034 ft 442 kts 307°
2026-05-04 03:40 48.48065 15.94430 40021 ft 442 kts 307°
2026-05-04 03:40 48.51825 15.87079 40037 ft 442 kts 307°
2026-05-04 03:41 48.55559 15.79761 40020 ft 442 kts 307°
2026-05-04 03:41 48.59314 15.72378 40017 ft 442 kts 306°
2026-05-04 03:42 48.63057 15.65002 40033 ft 442 kts 306°
2026-05-04 03:42 48.66791 15.57622 40019 ft 441 kts 306°
2026-05-04 03:43 48.70494 15.50284 40040 ft 441 kts 306°
2026-05-04 03:43 48.74219 15.42879 40020 ft 441 kts 306°
2026-05-04 03:44 48.77939 15.35466 40035 ft 440 kts 306°
2026-05-04 03:44 48.81638 15.28075 40033 ft 440 kts 306°
2026-05-04 03:45 48.85306 15.20723 40015 ft 440 kts 306°
2026-05-04 03:45 48.89000 15.13299 40016 ft 440 kts 306°
2026-05-04 03:46 48.92667 15.05854 40011 ft 439 kts 305°
2026-05-04 03:46 48.96314 14.98377 40010 ft 439 kts 305°
2026-05-04 03:47 48.99924 14.90950 40007 ft 439 kts 305°
2026-05-04 03:47 49.03561 14.83453 40006 ft 439 kts 305°
2026-05-04 03:48 49.07190 14.75956 40003 ft 439 kts 305°
2026-05-04 03:48 49.10816 14.68445 40010 ft 439 kts 304°
2026-05-04 03:49 49.14444 14.60910 40003 ft 440 kts 304°
2026-05-04 03:49 49.18069 14.53358 40004 ft 441 kts 304°
2026-05-04 03:50 49.21690 14.45794 40006 ft 441 kts 304°
2026-05-04 03:50 49.25290 14.38252 40004 ft 441 kts 304°
2026-05-04 03:51 49.28903 14.30660 40010 ft 441 kts 304°
2026-05-04 03:51 49.32521 14.23035 40012 ft 442 kts 304°
2026-05-04 03:52 49.36111 14.15450 40010 ft 442 kts 304°
2026-05-04 03:52 49.39719 14.07804 40007 ft 442 kts 304°
2026-05-04 03:53 49.43323 14.00144 40007 ft 442 kts 304°
2026-05-04 03:53 49.46922 13.92473 40008 ft 443 kts 304°
2026-05-04 03:54 49.50511 13.84799 40005 ft 444 kts 304°
2026-05-04 03:54 49.54116 13.77073 40006 ft 444 kts 304°
2026-05-04 03:55 49.57713 13.69338 40005 ft 444 kts 303°
2026-05-04 03:55 49.61308 13.61588 39999 ft 444 kts 303°
2026-05-04 03:56 49.64867 13.53892 39996 ft 443 kts 303°
2026-05-04 03:56 49.68448 13.46127 39995 ft 443 kts 303°
2026-05-04 03:57 49.72020 13.38360 39991 ft 443 kts 303°
2026-05-04 03:57 49.75585 13.30585 39986 ft 443 kts 303°
2026-05-04 03:58 49.80924 13.18899 39997 ft 443 kts 303°
2026-05-04 03:58 49.84478 13.11091 39995 ft 443 kts 303°
2026-05-04 03:59 49.88028 13.03271 39997 ft 443 kts 303°
2026-05-04 03:59 49.91544 12.95500 39999 ft 443 kts 303°
2026-05-04 04:00 49.95079 12.87665 40012 ft 443 kts 302°
2026-05-04 04:00 49.98612 12.79812 40015 ft 444 kts 302°
2026-05-04 04:01 50.02151 12.71919 40014 ft 447 kts 302°
2026-05-04 04:01 50.05707 12.63967 40012 ft 448 kts 302°
2026-05-04 04:02 50.09263 12.55992 40014 ft 448 kts 302°
2026-05-04 04:02 50.12788 12.48060 40012 ft 448 kts 302°
2026-05-04 04:03 50.16327 12.40073 40004 ft 447 kts 302°
2026-05-04 04:03 50.19371 12.31697 40002 ft 440 kts 289°
2026-05-04 04:04 50.21450 12.22764 40003 ft 440 kts 286°
2026-05-04 04:04 50.23348 12.13676 40007 ft 440 kts 285°
2026-05-04 04:05 50.25211 12.04562 40028 ft 440 kts 285°
2026-05-04 04:05 50.27075 11.95485 40021 ft 437 kts 285°
2026-05-04 04:06 50.28925 11.86502 40018 ft 436 kts 285°
2026-05-04 04:06 50.30785 11.77444 40019 ft 436 kts 285°
2026-05-04 04:07 50.32634 11.68398 40020 ft 436 kts 285°
2026-05-04 04:07 50.34465 11.59397 40035 ft 436 kts 285°
2026-05-04 04:08 50.36302 11.50322 40020 ft 438 kts 285°
2026-05-04 04:08 50.38137 11.41211 40020 ft 438 kts 285°
2026-05-04 04:09 50.39967 11.32085 40006 ft 438 kts 285°
2026-05-04 04:09 50.41787 11.22969 40006 ft 438 kts 284°
2026-05-04 04:10 50.43602 11.13833 40010 ft 438 kts 284°
2026-05-04 04:10 50.45397 11.04748 40003 ft 439 kts 284°
2026-05-04 04:11 50.47204 10.95568 40007 ft 439 kts 284°
2026-05-04 04:11 50.49003 10.86384 40007 ft 439 kts 284°
2026-05-04 04:12 50.50784 10.77251 40007 ft 439 kts 284°
2026-05-04 04:12 50.52566 10.68066 40008 ft 438 kts 284°
2026-05-04 04:13 50.54334 10.58912 40007 ft 436 kts 284°
2026-05-04 04:13 50.56078 10.49841 40007 ft 435 kts 284°
2026-05-04 04:14 50.57823 10.40716 40006 ft 436 kts 284°
2026-05-04 04:14 50.59562 10.31580 40006 ft 436 kts 284°
2026-05-04 04:15 50.61295 10.22428 40002 ft 435 kts 284°
2026-05-04 04:15 50.63019 10.13289 40002 ft 434 kts 284°
2026-05-04 04:16 50.64724 10.04199 40000 ft 434 kts 284°
2026-05-04 04:16 50.66430 9.95060 39998 ft 434 kts 284°
2026-05-04 04:17 50.68127 9.85922 39999 ft 434 kts 284°
2026-05-04 04:17 50.69819 9.76768 39999 ft 435 kts 284°
2026-05-04 04:18 50.71506 9.67600 39995 ft 435 kts 283°
2026-05-04 04:18 50.73162 9.58487 39997 ft 435 kts 283°
2026-05-04 04:19 50.74716 9.49293 39685 ft 430 kts 282°
2026-05-04 04:19 50.75464 9.44733 39454 ft 427 kts 282°
2026-05-04 04:19 50.76204 9.40201 39222 ft 425 kts 282°
2026-05-04 04:20 50.76942 9.35676 39007 ft 425 kts 281°
2026-05-04 04:20 50.77679 9.31159 38779 ft 423 kts 281°
2026-05-04 04:20 50.78414 9.26662 38527 ft 422 kts 281°
2026-05-04 04:20 50.79145 9.22182 38241 ft 421 kts 281°
2026-05-04 04:21 50.79875 9.17704 37960 ft 421 kts 281°
2026-05-04 04:21 50.80604 9.13220 37682 ft 421 kts 281°
2026-05-04 04:21 50.81325 9.08778 37400 ft 421 kts 281°
2026-05-04 04:21 50.82052 9.04284 37125 ft 421 kts 281°
2026-05-04 04:22 50.82908 8.99862 36859 ft 420 kts 287°
2026-05-04 04:22 50.84123 8.95663 36446 ft 421 kts 295°
2026-05-04 04:22 50.85148 8.93049 36109 ft 424 kts 300°
2026-05-04 04:22 50.86876 8.89246 35569 ft 426 kts 302°
2026-05-04 04:23 50.88689 8.85513 35024 ft 428 kts 303°
2026-05-04 04:23 50.90546 8.81814 34446 ft 430 kts 303°
2026-05-04 04:23 50.92433 8.78097 33814 ft 433 kts 303°
2026-05-04 04:23 50.94325 8.74369 33139 ft 434 kts 303°
2026-05-04 04:24 50.96211 8.70633 32515 ft 434 kts 303°
2026-05-04 04:24 50.98092 8.66884 31871 ft 433 kts 303°
2026-05-04 04:24 50.99965 8.63144 31237 ft 433 kts 304°
2026-05-04 04:24 51.02057 8.59759 30818 ft 435 kts 314°
2026-05-04 04:25 51.04472 8.56842 30344 ft 435 kts 318°
2026-05-04 04:25 51.06948 8.54101 29832 ft 433 kts 320°
2026-05-04 04:25 51.09447 8.51465 29304 ft 429 kts 320°
2026-05-04 04:25 51.11940 8.48896 28779 ft 425 kts 321°
2026-05-04 04:26 51.14413 8.46365 28304 ft 420 kts 321°
2026-05-04 04:26 51.16865 8.43849 27830 ft 416 kts 321°
2026-05-04 04:26 51.19287 8.41348 27364 ft 412 kts 321°
2026-05-04 04:26 51.21651 8.38893 26869 ft 409 kts 321°
2026-05-04 04:27 51.24024 8.36417 26381 ft 406 kts 321°
2026-05-04 04:27 51.26375 8.33954 25910 ft 402 kts 321°
2026-05-04 04:27 51.28710 8.31503 25457 ft 399 kts 321°
2026-05-04 04:27 51.31030 8.29065 24969 ft 397 kts 321°
2026-05-04 04:28 51.33334 8.26643 24477 ft 395 kts 321°
2026-05-04 04:28 51.35625 8.24234 24008 ft 393 kts 321°
2026-05-04 04:28 51.37908 8.21830 23556 ft 391 kts 321°
2026-05-04 04:28 51.40159 8.19457 23028 ft 389 kts 321°
2026-05-04 04:29 51.42415 8.17077 22546 ft 386 kts 321°
2026-05-04 04:29 51.44652 8.14718 22082 ft 383 kts 321°
2026-05-04 04:29 51.46796 8.12247 21606 ft 375 kts 313°
2026-05-04 04:29 51.48527 8.09222 21157 ft 363 kts 299°
2026-05-04 04:30 51.49665 8.05739 20716 ft 351 kts 284°
2026-05-04 04:30 51.50135 8.01960 20287 ft 341 kts 269°
2026-05-04 04:30 51.49951 7.98215 19875 ft 334 kts 258°
2026-05-04 04:30 51.49473 7.94583 19466 ft 331 kts 254°
2026-05-04 04:31 51.48866 7.91043 19081 ft 327 kts 252°
2026-05-04 04:31 51.48206 7.87562 18717 ft 324 kts 251°
2026-05-04 04:31 51.47539 7.84119 18340 ft 322 kts 251°
2026-05-04 04:31 51.46891 7.80739 17917 ft 320 kts 251°
2026-05-04 04:32 51.46255 7.77340 17551 ft 316 kts 252°
2026-05-04 04:32 51.45636 7.73959 17159 ft 315 kts 252°
2026-05-04 04:32 51.45029 7.70587 16792 ft 315 kts 252°
2026-05-04 04:32 51.44424 7.67202 16422 ft 313 kts 252°
2026-05-04 04:33 51.43825 7.63860 16026 ft 311 kts 252°
2026-05-04 04:33 51.43235 7.60572 15640 ft 310 kts 252°
2026-05-04 04:33 51.42636 7.57247 15271 ft 308 kts 252°
2026-05-04 04:33 51.42044 7.53942 14909 ft 307 kts 253°
2026-05-04 04:34 51.41474 7.50648 14552 ft 306 kts 253°
2026-05-04 04:34 51.40910 7.47358 14187 ft 305 kts 253°
2026-05-04 04:34 51.40349 7.44085 13813 ft 304 kts 253°
2026-05-04 04:34 51.39796 7.40865 13412 ft 303 kts 253°
2026-05-04 04:35 51.39239 7.37629 13049 ft 301 kts 253°
2026-05-04 04:35 51.38683 7.34404 12696 ft 299 kts 253°
2026-05-04 04:35 51.38128 7.31196 12340 ft 298 kts 253°
2026-05-04 04:35 51.37574 7.27993 11967 ft 297 kts 253°
2026-05-04 04:36 51.37024 7.24819 11604 ft 295 kts 253°
2026-05-04 04:36 51.36475 7.21662 11241 ft 293 kts 253°
2026-05-04 04:36 51.35929 7.18526 10873 ft 292 kts 253°
2026-05-04 04:36 51.35385 7.15404 10493 ft 290 kts 252°
2026-05-04 04:37 51.33855 7.06642 10108 ft 257 kts 252°
2026-05-04 04:37 51.33378 7.03927 9982 ft 249 kts 252°
2026-05-04 04:38 51.32914 7.01287 9813 ft 245 kts 252°
2026-05-04 04:38 51.32451 6.98663 9503 ft 245 kts 252°
2026-05-04 04:38 51.31987 6.96036 9230 ft 245 kts 252°
2026-05-04 04:38 51.31522 6.93409 8963 ft 245 kts 252°
2026-05-04 04:39 51.31065 6.90826 8709 ft 245 kts 252°
2026-05-04 04:39 51.30601 6.88209 8445 ft 244 kts 252°
2026-05-04 04:39 51.30139 6.85606 8180 ft 243 kts 253°
2026-05-04 04:39 51.29680 6.83017 7975 ft 239 kts 253°
2026-05-04 04:40 51.29351 6.80470 7857 ft 231 kts 264°
2026-05-04 04:40 51.29489 6.77956 7758 ft 226 kts 282°
2026-05-04 04:40 51.30166 6.75726 7640 ft 223 kts 303°
2026-05-04 04:40 51.31298 6.74034 7453 ft 225 kts 323°
2026-05-04 04:41 51.32751 6.73094 7126 ft 229 kts 345°
2026-05-04 04:41 51.34348 6.73076 6722 ft 233 kts
2026-05-04 04:41 51.35850 6.74029 6411 ft 231 kts 31°
2026-05-04 04:41 51.36963 6.75690 6327 ft 215 kts 52°
2026-05-04 04:42 51.37633 6.77740 6148 ft 204 kts 73°
2026-05-04 04:42 51.37846 6.79935 5884 ft 197 kts 93°
2026-05-04 04:42 51.37616 6.82086 5515 ft 195 kts 112°
2026-05-04 04:42 51.37001 6.83977 5217 ft 190 kts 126°
2026-05-04 04:43 51.36309 6.85775 4929 ft 189 kts 122°
2026-05-04 04:43 51.35830 6.87714 4681 ft 190 kts 105°
2026-05-04 04:43 51.35741 6.89836 4432 ft 192 kts 85°
2026-05-04 04:43 51.36088 6.91883 4177 ft 191 kts 65°
2026-05-04 04:44 51.36768 6.93686 3960 ft 188 kts 53°
2026-05-04 04:44 51.37542 6.95371 3710 ft 189 kts 52°
2026-05-04 04:44 51.38351 6.97026 3461 ft 187 kts 44°
2026-05-04 04:44 51.39458 6.97795 3298 ft 170 kts 352°
2026-05-04 04:45 51.40400 6.96956 3085 ft 153 kts 299°
2026-05-04 04:45 51.40665 6.95376 2991 ft 147 kts 266°
2026-05-04 04:45 51.40363 6.93868 2984 ft 146 kts 236°
2026-05-04 04:47 51.35197 6.90385 2064 ft 131 kts 234°
2026-05-04 04:47 51.34637 6.89246 1875 ft 130 kts 234°
2026-05-04 04:47 51.34088 6.88092 1699 ft 131 kts 234°
2026-05-04 04:47 51.33544 6.86946 1516 ft 131 kts 234°
2026-05-04 04:48 51.32992 6.85787 1342 ft 131 kts 233°
2026-05-04 04:49 51.30797 6.81168 648 ft 130 kts 230°
2026-05-04 04:49 51.30251 6.80019 459 ft 129 kts 230°
2026-05-04 04:49 51.29710 6.78867 263 ft 130 kts 230°
2026-05-04 04:49 51.29177 6.77742 138 ft 121 kts 231°
2026-05-04 04:50 51.28784 6.76919 131 ft 66 kts 233°
2026-05-04 04:50 51.28531 6.76393 125 ft 54 kts 233°
2026-05-04 04:50 51.28311 6.75967 123 ft 24 kts 206°
2026-05-04 04:50 51.28197 6.75943 128 ft 15 kts 194°
2026-05-04 04:51 51.28108 6.75889 123 ft 13 kts 209°
2026-05-04 04:51 51.28014 6.75831 127 ft 15 kts 189°
2026-05-04 04:51 51.27905 6.75818 130 ft 16 kts 182°
2026-05-04 04:51 51.27794 6.75814 127 ft 16 kts 182°
2026-05-04 04:52 51.27680 6.75811 129 ft 16 kts 179°
2026-05-04 04:52 51.27582 6.75856 127 ft 12 kts 158°
2026-05-04 04:52 51.27538 6.75892 128 ft 4 kts 154°
2026-05-04 04:52 51.27500 6.75918 132 ft 7 kts 157°
2026-05-04 04:53 51.27471 6.75975 127 ft 7 kts 102°
2026-05-04 04:53 51.27481 6.76055 133 ft 8 kts 70°
2026-05-04 04:53 51.27503 6.76147 131 ft 9 kts 71°
2026-05-04 04:53 51.27525 6.76241 130 ft 8 kts 57°
2026-05-04 04:54 51.27572 6.76276 131 ft 8 kts 14°
2026-05-04 04:54 51.27613 6.76288 128 ft 0 kts 10°